SCP
0 0 0 0 0 0 0 1 0 0 0 0 -0 0 -0 -0 0 0 1 1 1 1 1 1 1 1 1 1 1 0 0 0 0 0 0 0 0 0 0 0 0 0 0
1 1 0 0 0 0 0 0 0 0 0 1 0 0 0 0 0 1 1 1 1 0 1 1 1 1 1 1 1 1 1 0 0 0 0 0 0 0 0 0 0 0 0
1 1 1 1 0 0 0 0 0 0 0 0 0 0 0 0 0 0 0 1 1 0 1 1 1 1 0 1 1 1 1 1 0 0 0 0 0 0 0 0 0 0 0
0 1 0 0 0 0 0 0 0 0 0 0 0 -0 -0 0 0 0 0 0 1 1 1 1 1 0 1 0 1 1 1 1 1 0 0 0 0 0 0 0 0 0 0
0 1 0 1 1 0 0 0 0 0 0 0 0 0 -0 -0 -0 0 0 0 0 0 0 0 0 0 1 0 0 0 0 0 0 0 0 0 0 0 0 0 0 0 0
0 1 2 1 1 1 1 0 0 0 0 0 0 0 0 0 0 0 0 0 0 0 0 2 1 -0 0 0 0 0 0 0 0 0 0 0 0 0 0 0 0 0 0
1 1 1 2 2 1 1 0 0 0 0 0 0 0 0 0 0 0 0 1 1 1 1 0 1 2 1 1 1 1 1 0 0 0 0 0 0 0 0 0 0 0 0
1 1 2 1 2 1 1 0 0 0 0 0 0 0 0 0 0 0 0 0 0 0 0 0 0 -0 0 0 0 0 0 0 0 0 0 0 0 0 0 0 0 0 0
1 2 2 1 1 0 0 1 1 1 0 0 0 0 0 0 0 0 0 1 1 0 0 0 0 0 0 0 0 0 0 0 0 0 0 0 0 0 0 0 0 0 0
0 0 1 1 1 1 1 1 0 1 1 0 0 0 0 0 0 0 0 1 0 0 0 0 0 0 0 0 0 0 0 0 0 0 0 0 0 0 0 0 0 0 0
1 1 1 1 1 2 1 1 1 1 1 0 0 0 0 0 0 1 0 0 1 1 0 0 0 0 0 0 0 0 0 0 0 0 0 0 0 0 0 0 0 0 0
0 1 2 2 2 2 2 1 1 1 1 1 0 0 0 0 0 0 0 0 0 1 0 0 0 0 0 0 0 0 0 0 0 0 0 0 0 0 0 0 0 0 0
0 1 2 2 1 2 1 1 1 1 1 1 1 0 0 0 0 0 0 0 0 0 0 0 0 0 0 0 0 0 0 0 0 0 0 0 0 0 0 0 0 0 0
0 1 0 0 0 0 1 1 1 1 1 1 1 1 0 0 0 0 0 0 0 0 0 0 0 0 0 0 0 0 0 0 0 0 0 0 0 0 0 0 0 0 0
0 0 0 0 0 0 0 0 0 0 0 0 0 1 1 0 0 0 0 0 0 0 0 0 0 0 0 0 0 0 0 0 0 0 0 0 0 0 0 0 0 0 0
0 0 0 0 0 0 0 0 0 0 0 0 0 0 1 0 0 0 0 0 0 0 0 0 0 0 0 0 0 0 0 0 0 0 0 0 0 0 0 0 0 0 0
0 0 0 0 0 0 0 0 0 0 0 0 0 0 0 1 1 0 0 0 0 0 0 0 0 0 0 0 0 0 0 0 0 0 0 0 0 0 0 0 0 0 0
0 0 0 0 0 0 0 0 0 0 0 0 0 0 0 0 0 0 0 0 0 0 0 0 0 0 0 0 0 0 0 0 0 0 0 0 0 0 0 0 0 0 -0
0 0 0 0 0 0 0 0 0 0 0 0 0 0 0 0 0 0 0 0 0 0 0 0 0 0 0 0 0 0 0 0 0 0 0 0 0 0 0 -0 -0 -0 -0
0 0 0 0 0 0 0 0 0 0 0 0 0 0 0 0 0 0 0 0 0 0 0 0 0 0 0 0 0 0 0 0 0 0 0 0 0 0 0 -0 -0 -0 -0
0 0 0 0 0 0 0 0 0 0 0 0 0 0 0 0 0 0 0 0 0 0 0 0 0 0 0 0 0 0 0 0 0 0 -0 -0 0 0 0 -0 -0 -0 -0
0 0 0 0 0 0 0 0 0 0 0 0 0 0 0 0 0 0 0 -0 0 0 0 0 0 0 0 0 0 0 0 0 0 -0 0 0 0 0 -0 -0 -0 -0 -0
0 0 0 0 0 0 0 0 0 0 0 0 0 0 0 0 0 0 0 0 0 -0 0 0 0 0 0 0 0 0 0 0 0 0 0 0 -0 0 0 0 0 0 0
0 0 0 0 0 0 0 0 -0 -0 -0 -0 0 0 0 0 0 0 0 0 0 0 0 0 0 0 0 0 0 0 0 0 -0 -0 -0 -0 0 0 0 0 0 -0 0
0 0 0 -0 0 0 0 0 0 0 -0 -0 -0 -0 0 0 0 0 0 0 0 0 0 0 0 0 0 0 0 0 0 0 0 -0 -0 0 0 -0 -0 0 -0 0 -0
0 0 -0 -0 -0 -0 0 -0 -0 0 -0 0 0 -0 -0 -0 -0 -0 0 0 0 0 0 0 0 0 0 -0 -0 -0 -0 0 -0 -0 -0 0 0 -0 -0 -0 0 0 0
Wind_Speed_500mb
28 27 24 23 20 20 24 28 41 33 30 44 23 50 41 39 48 38 20 33 30 40 35 42 44 39 37 38 43 44 42 42 43 43 42 40 37 36 34 32 35 33 34
23 19 4 13 12 21 28 27 26 35 36 38 41 43 30 44 31 36 48 36 34 27 42 38 51 41 37 33 36 42 46 48 51 50 51 45 43 43 40 38 33 32 35
18 10 12 12 26 23 12 17 21 18 24 29 37 33 33 28 41 34 44 43 48 42 28 39 41 42 39 35 35 38 46 54 56 57 58 53 53 48 48 41 26 31 37
14 14 16 23 16 13 8 15 23 25 21 23 30 34 38 42 43 38 31 31 32 42 26 36 43 32 33 38 39 42 46 54 60 65 68 65 61 55 41 14 25 31 34
13 8 13 13 9 10 12 17 21 27 32 31 23 31 34 42 43 39 44 41 42 36 43 32 50 24 27 27 29 34 40 45 56 80 80 38 19 32 21 21 35 38 41
12 9 3 20 17 8 21 24 32 30 31 30 29 34 33 27 33 36 42 51 41 27 39 34 38 39 23 20 29 32 32 29 37 39 17 34 47 30 25 26 31 35 37
14 21 11 16 7 14 21 35 43 42 37 26 29 36 34 35 32 39 46 36 24 23 25 28 20 23 29 32 31 32 30 34 33 23 16 30 18 22 25 30 35 35 39
21 15 22 23 23 29 37 32 44 48 47 30 32 37 42 37 25 24 17 24 33 35 31 25 33 26 37 36 39 39 32 32 30 25 26 14 11 17 23 26 33 38 36
20 19 26 47 56 60 59 50 34 48 55 49 31 28 21 14 41 35 16 20 25 25 30 34 46 35 31 33 33 33 27 23 19 21 15 17 14 21 23 31 36 31 24
33 42 55 51 58 59 53 54 49 40 47 44 33 28 34 37 36 34 38 27 28 23 11 12 19 28 34 35 30 27 21 20 25 21 15 14 15 24 28 29 31 25 26
44 51 50 47 47 54 53 45 50 49 45 48 41 32 35 31 29 33 45 33 24 20 22 24 29 32 33 28 16 19 23 24 25 24 22 15 21 27 30 32 31 26 22
47 40 31 39 45 47 51 53 52 56 52 55 55 40 35 26 31 31 30 29 24 21 30 32 34 36 34 12 11 20 25 30 30 25 10 21 27 29 28 24 26 26 25
51 48 46 44 40 36 39 48 54 56 55 52 53 43 34 33 28 30 28 30 31 31 38 32 33 30 27 10 16 21 26 32 25 11 22 26 25 22 20 22 27 29 30
53 56 60 72 75 65 53 56 59 60 66 66 64 56 53 39 35 30 26 27 33 33 35 32 34 22 17 14 17 18 23 27 26 24 21 16 17 19 21 23 25 28 28
62 70 68 61 66 71 69 64 67 75 75 74 64 59 52 50 35 27 30 28 28 35 37 34 25 17 14 18 21 19 17 21 19 15 11 16 21 22 25 28 28 26 25
80 85 89 94 97 95 88 76 71 68 66 70 74 66 60 50 33 39 32 25 25 34 40 40 25 18 16 21 24 22 20 14 8 7 12 14 14 18 23 23 24 24 23
70 76 73 71 63 62 73 80 76 76 84 81 80 74 65 53 46 41 34 28 31 29 34 39 27 21 19 24 28 22 15 7 3 6 13 13 19 22 25 29 28 27 25
63 69 71 63 59 58 56 56 70 74 72 74 77 79 74 56 50 43 40 37 30 28 41 38 21 23 24 31 31 24 18 6 5 15 14 13 18 25 30 31 29 29 26
73 70 66 65 60 61 57 56 52 59 60 65 73 73 64 56 49 49 39 35 34 29 29 44 34 32 30 34 35 28 18 13 13 17 9 10 19 30 34 38 35 32 32
66 64 60 62 59 57 55 50 55 63 62 61 44 73 53 48 48 44 42 45 40 33 39 36 26 34 34 36 41 34 27 22 21 13 9 19 20 30 33 38 37 37 38
61 61 57 58 60 61 59 51 48 47 55 52 57 54 58 60 55 47 38 41 37 36 38 43 32 36 40 48 52 42 34 26 22 19 16 16 17 23 33 39 43 43 45
53 54 52 54 59 65 63 60 52 53 58 39 51 50 59 53 43 54 65 62 61 40 35 37 43 39 39 48 60 47 40 36 31 24 19 12 10 19 30 42 52 51 51
51 53 54 52 52 52 52 49 49 46 49 52 41 42 44 48 59 53 50 53 60 65 57 32 35 40 39 53 60 54 39 31 22 26 22 11 11 21 26 38 51 48 52
48 49 50 51 53 49 46 45 42 44 45 49 49 45 39 44 46 45 39 49 56 47 72 52 33 39 36 46 59 43 34 28 31 24 21 17 9 20 25 36 49 52 52
49 53 55 49 42 38 34 31 34 38 43 47 52 53 44 45 39 45 42 41 32 30 33 57 48 35 39 44 43 46 47 37 33 27 20 9 8 19 28 32 40 51 60
51 47 44 43 37 34 31 31 31 37 39 40 36 36 39 43 43 49 44 48 40 34 35 46 42 33 25 25 39 40 36 39 31 25 23 14 13 8 17 20 29 42 53
Wind_Direction_500mb
229 240 250 265 263 284 313 331 326 339 289 319 347 316 279 275 288 279 286 284 270 282 302 295 306 307 293 287 284 283 290 293 293 274 267 272 274 274 278 283 297 316 323
243 230 246 281 287 267 267 283 309 307 313 318 316 291 295 295 277 303 287 278 281 289 296 279 298 295 293 293 292 280 283 283 283 280 274 274 271 265 268 274 283 302 316
259 222 222 238 246 266 293 321 307 313 320 292 286 300 303 288 300 280 296 282 284 294 287 287 300 299 294 290 290 282 282 284 282 278 271 267 268 266 262 264 283 296 308
256 233 227 246 280 291 282 280 282 288 294 311 302 300 301 301 312 311 305 285 286 276 277 298 298 282 298 309 294 295 296 289 286 284 272 262 255 261 269 313 319 313 306
257 171 292 296 325 326 321 291 322 324 319 316 314 318 305 297 291 290 287 285 283 290 314 299 298 281 306 302 305 305 300 297 291 286 259 178 199 292 293 281 296 299 297
293 229 147 316 310 337 300 312 321 327 323 326 315 303 299 298 302 297 302 295 300 292 294 293 299 294 293 303 305 306 299 294 285 294 286 264 290 277 266 284 292 300 295
233 273 257 238 290 308 299 322 320 323 320 328 313 313 303 304 289 300 289 286 275 276 287 285 301 282 286 295 298 305 308 307 298 292 284 288 294 241 280 298 295 295 291
291 276 263 278 297 305 303 305 304 306 304 316 302 296 304 303 296 303 334 267 292 288 281 325 333 321 301 311 318 315 312 299 296 267 288 281 235 279 303 301 293 285 291
228 253 292 301 300 303 301 295 290 296 299 297 297 293 302 298 311 283 302 341 312 318 295 273 312 317 316 322 323 323 325 333 308 307 309 248 266 293 279 272 277 286 305
293 288 287 278 294 295 291 281 267 280 285 277 290 272 268 278 284 302 302 323 322 327 314 317 324 315 315 318 322 328 326 331 330 305 270 247 297 292 286 300 300 288 289
285 283 277 286 284 280 277 278 275 264 265 268 274 277 275 269 270 279 290 301 311 296 288 299 316 324 325 326 314 321 303 322 320 313 298 298 311 307 304 305 296 291 291
292 285 279 279 273 279 269 262 264 264 260 265 271 251 251 259 275 282 298 301 303 307 290 299 315 317 329 326 316 303 298 303 302 298 303 317 306 309 308 306 305 304 297
282 283 271 269 263 278 282 265 259 254 251 256 264 256 250 251 255 270 283 292 296 290 289 289 303 315 334 329 291 296 296 272 265 283 309 310 316 318 322 314 309 307 304
281 273 273 271 273 277 281 275 268 262 255 247 246 249 250 244 245 250 266 284 299 296 297 282 287 301 328 314 278 293 269 269 275 293 306 328 333 330 325 323 317 310 312
277 274 270 270 270 268 271 270 268 265 259 251 243 242 244 248 239 242 250 253 269 293 293 296 278 278 307 296 269 267 260 270 282 296 9 356 348 342 338 326 318 314 319
285 279 276 276 275 274 274 266 264 266 262 255 246 240 234 246 228 232 248 247 257 273 287 291 284 265 269 282 258 259 263 271 298 59 33 1 6 358 345 343 338 335 341
287 282 282 283 283 279 271 266 263 267 267 261 251 241 236 229 234 231 241 248 248 255 280 275 275 248 254 252 249 251 250 223 201 78 64 35 28 10 3 6 1 358 351
283 285 289 284 278 276 273 272 266 264 268 262 252 243 235 233 235 248 250 256 262 263 257 281 281 218 238 244 237 245 230 190 138 108 87 36 41 27 14 6 9 11 8
286 285 283 280 282 279 277 274 269 272 272 261 249 233 233 224 240 236 241 251 252 254 275 273 261 244 238 231 225 221 202 179 141 113 90 89 46 31 23 21 19 22 15
283 285 284 279 278 274 269 271 265 264 269 266 246 230 229 226 235 236 252 261 268 274 250 262 256 239 232 228 225 213 189 179 151 134 125 60 36 31 27 29 30 27 15
282 282 279 274 274 273 274 265 272 267 269 268 263 241 231 227 239 235 244 261 263 263 262 256 239 229 226 217 214 203 198 171 159 156 106 69 33 24 30 34 34 33 27
289 292 287 283 277 273 274 257 253 259 262 266 255 256 237 240 238 241 241 252 255 255 258 253 240 236 238 225 214 206 188 171 164 154 122 100 19 22 31 32 30 32 32
293 293 290 289 283 283 278 268 253 259 257 247 254 241 234 238 247 241 244 253 255 243 246 240 248 242 229 241 217 204 185 176 165 143 126 118 12 7 36 31 25 29 26
295 297 294 292 290 285 281 271 252 252 250 249 247 245 247 243 227 225 238 243 259 249 233 234 240 247 264 241 221 202 162 153 139 140 127 120 48 43 42 39 43 41 32
298 298 298 297 290 281 286 267 248 252 249 249 249 251 243 238 228 227 241 254 239 233 226 220 234 244 255 237 215 170 155 149 150 147 142 123 151 62 49 48 51 46 41
300 301 297 293 293 280 270 265 246 240 243 243 244 244 236 236 235 226 235 243 228 225 213 210 211 223 236 218 164 159 139 134 144 152 162 160 170 41 66 58 52 47 41
Wind_Speed_850mb
28 27 24 23 20 20 24 28 41 33 30 44 23 50 41 39 48 38 20 33 30 40 35 42 44 39 37 38 43 44 42 42 43 43 42 40 37 36 34 32 35 33 34
23 19 4 13 12 21 28 27 26 35 36 38 41 43 30 44 31 36 48 36 34 27 42 38 51 41 37 33 36 42 46 48 51 50 51 45 43 43 40 38 33 32 35
18 10 12 12 26 23 12 17 21 18 24 29 37 33 33 28 41 34 44 43 48 42 28 39 41 42 39 35 35 38 46 54 56 57 58 53 53 48 48 41 26 31 37
14 14 16 23 16 13 8 15 23 25 21 23 30 34 38 42 43 38 31 31 32 42 26 36 43 32 33 38 39 42 46 54 60 65 68 65 61 55 41 14 25 31 34
13 8 13 13 9 10 12 17 21 27 32 31 23 31 34 42 43 39 44 41 42 36 43 32 50 24 27 27 29 34 40 45 56 80 80 38 19 32 21 21 35 38 41
12 9 3 20 17 8 21 24 32 30 31 30 29 34 33 27 33 36 42 51 41 27 39 34 38 39 23 20 29 32 32 29 37 39 17 34 47 30 25 26 31 35 37
14 21 11 16 7 14 21 35 43 42 37 26 29 36 34 35 32 39 46 36 24 23 25 28 20 23 29 32 31 32 30 34 33 23 16 30 18 22 25 30 35 35 39
21 15 22 23 23 29 37 32 44 48 47 30 32 37 42 37 25 24 17 24 33 35 31 25 33 26 37 36 39 39 32 32 30 25 26 14 11 17 23 26 33 38 36
20 19 26 47 56 60 59 50 34 48 55 49 31 28 21 14 41 35 16 20 25 25 30 34 46 35 31 33 33 33 27 23 19 21 15 17 14 21 23 31 36 31 24
33 42 55 51 58 59 53 54 49 40 47 44 33 28 34 37 36 34 38 27 28 23 11 12 19 28 34 35 30 27 21 20 25 21 15 14 15 24 28 29 31 25 26
44 51 50 47 47 54 53 45 50 49 45 48 41 32 35 31 29 33 45 33 24 20 22 24 29 32 33 28 16 19 23 24 25 24 22 15 21 27 30 32 31 26 22
47 40 31 39 45 47 51 53 52 56 52 55 55 40 35 26 31 31 30 29 24 21 30 32 34 36 34 12 11 20 25 30 30 25 10 21 27 29 28 24 26 26 25
51 48 46 44 40 36 39 48 54 56 55 52 53 43 34 33 28 30 28 30 31 31 38 32 33 30 27 10 16 21 26 32 25 11 22 26 25 22 20 22 27 29 30
53 56 60 72 75 65 53 56 59 60 66 66 64 56 53 39 35 30 26 27 33 33 35 32 34 22 17 14 17 18 23 27 26 24 21 16 17 19 21 23 25 28 28
62 70 68 61 66 71 69 64 67 75 75 74 64 59 52 50 35 27 30 28 28 35 37 34 25 17 14 18 21 19 17 21 19 15 11 16 21 22 25 28 28 26 25
80 85 89 94 97 95 88 76 71 68 66 70 74 66 60 50 33 39 32 25 25 34 40 40 25 18 16 21 24 22 20 14 8 7 12 14 14 18 23 23 24 24 23
70 76 73 71 63 62 73 80 76 76 84 81 80 74 65 53 46 41 34 28 31 29 34 39 27 21 19 24 28 22 15 7 3 6 13 13 19 22 25 29 28 27 25
63 69 71 63 59 58 56 56 70 74 72 74 77 79 74 56 50 43 40 37 30 28 41 38 21 23 24 31 31 24 18 6 5 15 14 13 18 25 30 31 29 29 26
73 70 66 65 60 61 57 56 52 59 60 65 73 73 64 56 49 49 39 35 34 29 29 44 34 32 30 34 35 28 18 13 13 17 9 10 19 30 34 38 35 32 32
66 64 60 62 59 57 55 50 55 63 62 61 44 73 53 48 48 44 42 45 40 33 39 36 26 34 34 36 41 34 27 22 21 13 9 19 20 30 33 38 37 37 38
61 61 57 58 60 61 59 51 48 47 55 52 57 54 58 60 55 47 38 41 37 36 38 43 32 36 40 48 52 42 34 26 22 19 16 16 17 23 33 39 43 43 45
53 54 52 54 59 65 63 60 52 53 58 39 51 50 59 53 43 54 65 62 61 40 35 37 43 39 39 48 60 47 40 36 31 24 19 12 10 19 30 42 52 51 51
51 53 54 52 52 52 52 49 49 46 49 52 41 42 44 48 59 53 50 53 60 65 57 32 35 40 39 53 60 54 39 31 22 26 22 11 11 21 26 38 51 48 52
48 49 50 51 53 49 46 45 42 44 45 49 49 45 39 44 46 45 39 49 56 47 72 52 33 39 36 46 59 43 34 28 31 24 21 17 9 20 25 36 49 52 52
49 53 55 49 42 38 34 31 34 38 43 47 52 53 44 45 39 45 42 41 32 30 33 57 48 35 39 44 43 46 47 37 33 27 20 9 8 19 28 32 40 51 60
51 47 44 43 37 34 31 31 31 37 39 40 36 36 39 43 43 49 44 48 40 34 35 46 42 33 25 25 39 40 36 39 31 25 23 14 13 8 17 20 29 42 53
Wind_Direction_850mb
229 240 250 265 263 284 313 331 326 339 289 319 347 316 279 275 288 279 286 284 270 282 302 295 306 307 293 287 284 283 290 293 293 274 267 272 274 274 278 283 297 316 323
243 230 246 281 287 267 267 283 309 307 313 318 316 291 295 295 277 303 287 278 281 289 296 279 298 295 293 293 292 280 283 283 283 280 274 274 271 265 268 274 283 302 316
259 222 222 238 246 266 293 321 307 313 320 292 286 300 303 288 300 280 296 282 284 294 287 287 300 299 294 290 290 282 282 284 282 278 271 267 268 266 262 264 283 296 308
256 233 227 246 280 291 282 280 282 288 294 311 302 300 301 301 312 311 305 285 286 276 277 298 298 282 298 309 294 295 296 289 286 284 272 262 255 261 269 313 319 313 306
257 171 292 296 325 326 321 291 322 324 319 316 314 318 305 297 291 290 287 285 283 290 314 299 298 281 306 302 305 305 300 297 291 286 259 178 199 292 293 281 296 299 297
293 229 147 316 310 337 300 312 321 327 323 326 315 303 299 298 302 297 302 295 300 292 294 293 299 294 293 303 305 306 299 294 285 294 286 264 290 277 266 284 292 300 295
233 273 257 238 290 308 299 322 320 323 320 328 313 313 303 304 289 300 289 286 275 276 287 285 301 282 286 295 298 305 308 307 298 292 284 288 294 241 280 298 295 295 291
291 276 263 278 297 305 303 305 304 306 304 316 302 296 304 303 296 303 334 267 292 288 281 325 333 321 301 311 318 315 312 299 296 267 288 281 235 279 303 301 293 285 291
228 253 292 301 300 303 301 295 290 296 299 297 297 293 302 298 311 283 302 341 312 318 295 273 312 317 316 322 323 323 325 333 308 307 309 248 266 293 279 272 277 286 305
293 288 287 278 294 295 291 281 267 280 285 277 290 272 268 278 284 302 302 323 322 327 314 317 324 315 315 318 322 328 326 331 330 305 270 247 297 292 286 300 300 288 289
285 283 277 286 284 280 277 278 275 264 265 268 274 277 275 269 270 279 290 301 311 296 288 299 316 324 325 326 314 321 303 322 320 313 298 298 311 307 304 305 296 291 291
292 285 279 279 273 279 269 262 264 264 260 265 271 251 251 259 275 282 298 301 303 307 290 299 315 317 329 326 316 303 298 303 302 298 303 317 306 309 308 306 305 304 297
282 283 271 269 263 278 282 265 259 254 251 256 264 256 250 251 255 270 283 292 296 290 289 289 303 315 334 329 291 296 296 272 265 283 309 310 316 318 322 314 309 307 304
281 273 273 271 273 277 281 275 268 262 255 247 246 249 250 244 245 250 266 284 299 296 297 282 287 301 328 314 278 293 269 269 275 293 306 328 333 330 325 323 317 310 312
277 274 270 270 270 268 271 270 268 265 259 251 243 242 244 248 239 242 250 253 269 293 293 296 278 278 307 296 269 267 260 270 282 296 9 356 348 342 338 326 318 314 319
285 279 276 276 275 274 274 266 264 266 262 255 246 240 234 246 228 232 248 247 257 273 287 291 284 265 269 282 258 259 263 271 298 59 33 1 6 358 345 343 338 335 341
287 282 282 283 283 279 271 266 263 267 267 261 251 241 236 229 234 231 241 248 248 255 280 275 275 248 254 252 249 251 250 223 201 78 64 35 28 10 3 6 1 358 351
283 285 289 284 278 276 273 272 266 264 268 262 252 243 235 233 235 248 250 256 262 263 257 281 281 218 238 244 237 245 230 190 138 108 87 36 41 27 14 6 9 11 8
286 285 283 280 282 279 277 274 269 272 272 261 249 233 233 224 240 236 241 251 252 254 275 273 261 244 238 231 225 221 202 179 141 113 90 89 46 31 23 21 19 22 15
283 285 284 279 278 274 269 271 265 264 269 266 246 230 229 226 235 236 252 261 268 274 250 262 256 239 232 228 225 213 189 179 151 134 125 60 36 31 27 29 30 27 15
282 282 279 274 274 273 274 265 272 267 269 268 263 241 231 227 239 235 244 261 263 263 262 256 239 229 226 217 214 203 198 171 159 156 106 69 33 24 30 34 34 33 27
289 292 287 283 277 273 274 257 253 259 262 266 255 256 237 240 238 241 241 252 255 255 258 253 240 236 238 225 214 206 188 171 164 154 122 100 19 22 31 32 30 32 32
293 293 290 289 283 283 278 268 253 259 257 247 254 241 234 238 247 241 244 253 255 243 246 240 248 242 229 241 217 204 185 176 165 143 126 118 12 7 36 31 25 29 26
295 297 294 292 290 285 281 271 252 252 250 249 247 245 247 243 227 225 238 243 259 249 233 234 240 247 264 241 221 202 162 153 139 140 127 120 48 43 42 39 43 41 32
298 298 298 297 290 281 286 267 248 252 249 249 249 251 243 238 228 227 241 254 239 233 226 220 234 244 255 237 215 170 155 149 150 147 142 123 151 62 49 48 51 46 41
300 301 297 293 293 280 270 265 246 240 243 243 244 244 236 236 235 226 235 243 228 225 213 210 211 223 236 218 164 159 139 134 144 152 162 160 170 41 66 58 52 47 41